Location: New Mesquite
(33.1168°N, 96.4336°W)
Time: 08:51:09
(UTC+00:00)

OPS-SAT - Pass Details

Date: 13 October 2022
Orbit: 486 x 504 km, 97.5° (Epoch: 01 December)

Event Time Altitude Azimuth Distance (km) Brightness Sun altitude
Rises 01:18:21 0° 353° (N) 2,623 ? -18.1°
Reaches altitude 10° 01:20:52 10° 335° (NNW) 1,731 ? -18.6°
Maximum altitude 01:23:34 19° 289° (WNW) 1,247 ? -19.1°
Drops below altitude 10° 01:26:15 10° 242° (WSW) 1,716 ? -19.7°
Sets 01:28:45 0° 225° (SW) 2,592 ? -20.2°
